Regional Weather Roundup
Issued by NWS

Home | Current Version | Previous Version | Graphics & Text | Print | Product List | Glossary On
Versions: 1 2 3 4 5 6 7 8 9 10 11 12 13 14 15 16 17 18 19 20 21 22 23 24 25 26 27 28 29 30 31 32 33 34 35 36 37 38 39 40 41 42 43 44 45 46 47 48 49 50
000
ASUS43 KOAX 230210
RWRNE

WEATHER ROUNDUP FOR NEBRASKA
NATIONAL WEATHER SERVICE OMAHA NE
800 PM CST SAT NOV 22 2014

NOTES: SATELLITE DATA IS BEING USED TO AUGMENT CLOUD COVER ABOVE
       12000 FEET.
       "FAIR" INDICATES FEW OR NO CLOUDS BELOW 12,000 FEET WITH NO
       SIGNIFICANT WEATHER AND/OR OBSTRUCTIONS TO VISIBILITY.

  * THESE STATIONS DO NOT REPORT WEATHER SUCH AS RAIN...SNOW OR FOG.

NEZ001>004-019>022-054>056-230300-
NEBRASKA PANHANDLE

CITY           SKY/WX    TMP DP  RH WIND       PRES   REMARKS
SCOTTSBLUFF    CLOUDY    41  30  65 E3        29.54S
ALLIANCE       CLOUDY    50  32  50 NW15      29.52F
CHADRON        CLOUDY    46  32  58 SW10      29.47S
KIMBALL        CLOUDY    45  24  43 W5        29.54F
SIDNEY         CLOUDY    54  25  32 NW12G28   29.56F
$$

NEZ057>060-069>072-079>082-230300-
SOUTHWEST NEBRASKA

CITY           SKY/WX    TMP DP  RH WIND       PRES   REMARKS
NORTH PLATTE   MOCLDY    39  25  57 CALM      29.51S
IMPERIAL       CLOUDY    43  15  32 NW3       29.51F
LEXINGTON      MOCLDY    46  32  59 SE8       29.51F
MCCOOK         PTCLDY    50  18  28 S9        29.51S
OGALLALA       CLOUDY    40  21  47 CALM      29.54R
$$

NEZ005>010-023>029-035>040-094-230300-
NORTH CENTRAL NEBRASKA

CITY           SKY/WX    TMP DP  RH WIND       PRES   REMARKS
VALENTINE      CLOUDY    45  30  55 W6        29.46S
AINSWORTH      CLOUDY    49  27  42 S8        29.47R
BROKEN BOW     MOCLDY    47  30  51 CALM      29.51F
O`NEILL        CLOUDY    48  32  53 S8        29.48F
ORD            MOCLDY    36  27  69 E6        29.51F WCI  31
THEDFORD       CLOUDY    53  22  29 W3        29.51R
$$

NEZ041-046>049-061>064-073>077-083>087-230300-
SOUTH CENTRAL NEBRASKA

CITY           SKY/WX    TMP DP  RH WIND       PRES   REMARKS
AURORA         PTCLDY    46  43  90 S9        29.56S
HASTINGS       MOCLDY    47  39  74 S9        29.55F
HEBRON         CLOUDY    57  52  83 S17G23    29.59S
HOLDREGE       PTCLDY    44  32  62 S8        29.53F
KEARNEY *      MOCLDY    43  34  70 SE12      29.56S
YORK           CLOUDY    54  50  87 S16       29.57F
$$

NEZ011>018-030>034-042>045-230300-
NORTHEAST NEBRASKA

CITY           SKY/WX    TMP DP  RH WIND       PRES   REMARKS
NORFOLK        MOCLDY    47  40  76 S9        29.52S
ALBION         PTCLDY    41  34  76 SE6       29.53F
BLAIR          CLOUDY    55  52  89 S12       29.59S
COLUMBUS *     MOCLDY    46  43  87 S8        29.57F
FREMONT        CLOUDY    55  50  83 S10G17    29.59R
TEKAMAH        CLOUDY    53  48  83 S13       29.58S
WAYNE          PTCLDY    37  35  93 S7        29.54S WCI  31
$$

NEZ050>053-065>068-078-088>093-230300-
SOUTHEAST NEBRASKA

CITY           SKY/WX    TMP DP  RH WIND       PRES   REMARKS
LINCOLN        CLOUDY    57  52  83 S17       29.60R
OMAHA EPPLEY   CLOUDY    54  53  97 S14       29.60S
BEATRICE       CLOUDY    57  53  87 S14G21    29.60F
FALLS CITY     CLOUDY    55  52  89 S12       29.67S
NEBRASKA CITY  CLOUDY    56  55  97 S15G22    29.63S
PLATTSMOUTH    CLOUDY    54  52  94 S12G18    29.60F FOG
$$

NEZ044-045-051>053-067-230300-
OMAHA AREA

CITY           SKY/WX    TMP DP  RH WIND       PRES   REMARKS
OMAHA EPPLEY   CLOUDY    54  53  97 S14       29.60S
BLAIR          CLOUDY    55  52  89 S12       29.59S
FREMONT        CLOUDY    55  50  83 S10G17    29.59R
MILLARD        CLOUDY    56  53  88 S8        29.60R
OFFUTT AFB     CLOUDY    54  53  95 SE10      29.60R
PLATTSMOUTH    CLOUDY    54  52  94 S12G18    29.60F FOG
WAHOO          CLOUDY    56  50  81 S14       29.58F
$$


USA.gov is the U.S. government's official web portal to all federal, state and local government web resources and services.